Dauntless Aviation
Greetings, Guest! To participate, [sign up for a free account] or [log in]
Airports North America United States Colorado
98CO

NCMC HELIPORT

GREELEY, CO, USA

Airport Info

Location

Latitude / Longitude: 40°24'53"N / 104°42'28"W
  40°24.9'N / 104°42.4667'W
  40.4150 / -104.7078
Elevation: 4882 ft. (estimated)
Variation: 12E (1985)
From city: 00 miles N of GREELEY, CO

Operations

Facility use: Private
Sectional chart: DENVER
Control tower: no
Boundary ARTCC: DENVER
FSS: DENVER [1-800-WX-BRIEF]
Segmented circle: no

Communications

Nearby radio navigation aids

VOR radial/distance VOR name Freq Var
GLL 233oT/8.9 GILL VORTAC 114.20 13E
DVV 353oT/31.5 MILE HIGH VORTAC 114.70 11E
BJC 33oT/36.1 JEFFCO VOR/DME 115.40 11E
DEN 357oT/36.2 DENVER VOR/DME 117.90 11E
 
NDB name Hdg/Dist Freq Var ID

Services

Runway Information

Helipad H1

Dimensions: 40 x 40 ft.
Surface: PORTLAND CEMENT CONCRETE,NO SPECIAL SURFACE TREATMENT
 

Additional Remarks

Instrument Procedures

No published instrument procedures available
Topographic chart at:
Satellite photo at:
Airport distance calculator
From:
Weather Reports

METAR

KGXY
4.2nm NE
KGXY 010135Z AUTO 00000KT 10SM CLR 07/M03 A3011 RMK AO1
KFNL
14.3nm W
KFNL 010135Z AUTO 00000KT 10SM CLR 07/M03 A3012 RMK AO1
KLMO
25.8nm SW
KLMO 010133Z AUTO 00000KT 10SM CLR 07/00 A3013 RMK AO2 T00710001
KEIK
28.6nm S
KEIK 010135Z AUTO 00000KT 10SM CLR 05/00 A3011 RMK AO2 T00531002
KBDU
33.3nm SW
KBDU 010137Z AUTO 00000KT 10SM CLR 08/01 A3011 RMK AO2
KDEN
35.0nm SE
KDEN 010053Z 17007KT 10SM SCT150 BKN220 08/M02 A3012 RMK AO2 SLP188 T00781017 $

TAF

KDEN
35.0nm SE
KDEN 010033Z 0101/0206 16008KT P6SM SCT150 BKN220 FM010300 21010KT P6SM FEW150 SCT220 FM011500 VRB05KT P6SM FEW130 BKN200 FM011900 08007KT P6SM SCT130 BKN200 FM020200 19008KT P6SM BKN140 BKN200
KBJC
35.3nm S
KBJC 312324Z 0100/0124 VRB05KT P6SM FEW120 BKN220 FM010700 26006KT P6SM FEW120 BKN220 FM011500 VRB05KT P6SM FEW120 BKN200
Safelog

 

Dauntless Aviation

© 2007-2014 Dauntless Aviation, all rights reserved
Information provided via PilotNav comes from a variety of official and unofficial data sources. As errors are possible, do not use PilotNav for primary flight planning purposes. Verify any information that you receive via PilotNav with current and canonical charts and other official documents. The material in this database is subject to database copyrights held by Dauntless Aviation and may not be copied without the express permission of Dauntless Aviation - licenses for use of part of all of this data are available for purchase; enquire via the Dauntless Aviation helpdesk. A number of mechanisms and markers exist in the database to protect against and identify infringement / copyright. Automated queries against this website are stictly prohibited, and all activity is logged and analyzed.